Meteopurmerend
purmerend
Purmerend - Baaienwijk



My webcam  My webcam


waarschuwing voor Onweer Meer informatie blitzortung!


Regen radar Meer informatie rain snow radar


Bezoek onze andere website:

CandyAppleRed WebdesignWebdesign Purmerend Candy Apple Red

MeteopurmerendBlog

Template documentation
and downloads



Onweer van: 19-06-2019 10:00 tot: 23:00 waarschuwing voor: Onweer niveau: Geel info button
Enkele onweersbuien, mogelijk met hagel en windstoten tot ca. 75 km/uur.Verkeer en buitenactiviteiten kunnen hinder ondervinden.Mijd open water en open gebied, schuil niet onder bomen.Volg weerberichten en waarschuwingen.

15 daagse weersverwachting Amstetten (AT)

  • Overzicht
  • Per uur
  • 15 dagen
  • Extra
  • Vergelijk
  • Kaarten
  • Dagkaart
  • Meer »
  • Info
  • Statistieken
  • Directe link
    Temp 6h Neerslag Wind  
 05:01     21:03    Daglengte: 16:02 Vandaag
14:00
29°
 
2
20:00
26°
 
2
 05:01     21:04    Daglengte: 16:03 Morgen
02:00
19°
 
1
08:00
22°
 
1
14:00
29°
 
3
20:00
25°
 
3
 05:02     21:04    Daglengte: 16:02 Vrijdag 21 Jun
02:00
19°
5.5 mm
3
08:00
20°
6.9 mm
3
14:00
25°
 
3
20:00
22°
 
2
 05:02     21:04    Daglengte: 16:02 Zaterdag 22 Jun
02:00
17°
9.3 mm
1
08:00
19°
6.4 mm
1
warningclass
Locatie info
Region: Niederösterreich
Latitude: 48.1250°N
Longitude: 14.8704°E
277 masl
Postcode: 3300
Temp/Neerslag /Baro Onweer/Dauwpunt
    Temp Baro 1h Neerslag Dauwpunt Wind UV Bewolking  
 05:01     21:03    Daglengte: 16:02 Vandaag
13:00
29°
Voelt als: 28.5°
1011.3 hPa   15.0°
2
Windvlaag: -2.4 m/s
5%
14:00
29°
Voelt als: 28.9°
1010.8 hPa   13.4°
2
Windvlaag: -2.5 m/s
19%
15:00
30°
Voelt als: 29.0°
1010.4 hPa   13.0°
2
Windvlaag: -2.7 m/s
36%
16:00
30°
Voelt als: 28.9°
1009.9 hPa
12%
12.8°
2
Windvlaag: -2.7 m/s
60%
17:00
29°
Voelt als: 28.3°
1009.8 hPa
20%
13.6°
3
Windvlaag: -0.9 m/s
80%
18:00
28°
Voelt als: 27.9°
1009.6 hPa
18%
13.7°
3
Windvlaag: -1.2 m/s
76%
19:00
27°
1009.8 hPa
18%
14.3°
2
Windvlaag: -1.4 m/s
71%
20:00
26°
1010.0 hPa
25%
15.7°
2
Windvlaag: -1 m/s
66%
21:00
24°
1010.4 hPa
15%
17.8°
2
Windvlaag: -0.2 m/s
43%
22:00
23°
1010.8 hPa
14%
17.4°
1
Windvlaag: -0 m/s
33%
23:00
22°
1011.2 hPa
14%
16.8°
1
Windvlaag: 0.2 m/s
43%
 05:01     21:04    Daglengte: 16:03 Morgen
00:00
20°
1011.3 hPa
14%
17.1°
1
Windvlaag: 0.4 m/s
18%
01:00
20°
1011.2 hPa
14%
16.0°
1
Windvlaag: 0.4 m/s
12%
02:00
19°
1011.2 hPa
14%
15.7°
1
Windvlaag: 0.4 m/s
17%
03:00
18°
1011.1 hPa
14%
15.1°
1
Windvlaag: 0.6 m/s
11%
04:00
18°
1011.2 hPa
14%
14.6°
1
Windvlaag: 0.6 m/s
3%
05:00
17°
1011.5 hPa
14%
13.9°
1
Windvlaag: 0.6 m/s
4%
06:00
18°
1011.9 hPa
14%
13.9°
1
Windvlaag: 0.6 m/s
5%
07:00
19°
1012.0 hPa
14%
14.3°
1
Windvlaag: 0.5 m/s
4%
08:00
22°
1011.9 hPa
14%
14.6°
1
Windvlaag: 0.7 m/s
2%
09:00
24°
1011.9 hPa
15%
15.0°
1
Windvlaag: 0.9 m/s
1%
10:00
26°
1011.7 hPa
14%
15.3°
1
Windvlaag: -0.5 m/s
2%
11:00
28°
1011.4 hPa
19%
14.9°
2
Windvlaag: -1.2 m/s
4%
12:00
29°
Voelt als: 28.8°
1011.0 hPa
28%
14.6°
3
Windvlaag: -1.8 m/s
14%
13:00
29°
Voelt als: 28.6°
1011.0 hPa
36%
14.0°
4
Windvlaag: -2.4 m/s
24%
14:00
29°
Voelt als: 28.9°
1010.7 hPa
40%
14.2°
3
Windvlaag: -2.8 m/s
18%
15:00
29°
Voelt als: 29.2°
1010.2 hPa
33%
14.6°
2
Windvlaag: -2.9 m/s
15%
16:00
29°
Voelt als: 28.8°
1010.0 hPa
36%
13.5°
2
Windvlaag: -2.5 m/s
38%
17:00
29°
Voelt als: 28.0°
1010.1 hPa
82%
12.7°
2
Windvlaag: -0.6 m/s
42%
18:00
28°
Voelt als: 27.3°
1010.4 hPa
82%
12.0°
3
Windvlaag: 0.3 m/s
45%
19:00
27°
1010.9 hPa
82%
13.5°
3
Windvlaag: 0.3 m/s
60%
20:00
25°
1011.6 hPa
79%
15.1°
3
Windvlaag: 0.4 m/s
70%
21:00
23°
1012.6 hPa
78%
16.9°
3
Windvlaag: 1.1 m/s
74%
22:00
22°
1013.4 hPa 1.5 mm
78%
17.0°
3
Windvlaag: 0.9 m/s
80%
23:00
21°
1013.7 hPa 1.7 mm
74%
17.9°
3
Windvlaag: 0.7 m/s
67%
 05:02     21:04    Daglengte: 16:02 Vrijdag 21 Jun
00:00
20°
1014.5 hPa
37%
17.7°
3
Windvlaag: 0.8 m/s
38%
01:00
20°
1015.0 hPa 1.0 mm
82%
17.6°
3
Windvlaag: 1.6 m/s
55%
02:00
19°
1015.1 hPa 1.4 mm
82%
17.5°
3
Windvlaag: 1.1 m/s
57%
03:00
19°
1015.1 hPa 1.4 mm
81%
17.2°
3
Windvlaag: 1 m/s
67% warningclass
04:00
18°
1015.2 hPa 1.6 mm
75%
16.8°
3
Windvlaag: 1.3 m/s
66%
05:00
18°
1015.5 hPa 1.9 mm
70%
16.6°
3
Windvlaag: 1 m/s
62%
06:00
18°
1015.7 hPa 2.0 mm
28%
16.2°
3
Windvlaag: 1.1 m/s
53%
07:00
19°
1016.0 hPa
32%
16.3°
3
Windvlaag: 1.1 m/s
60%
08:00
20°
1016.2 hPa
18%
16.1°
3
Windvlaag: 1.3 m/s
62%
09:00
20°
1016.4 hPa
55%
16.5°
3
Windvlaag: 0.9 m/s
55%
10:00
21°
1016.5 hPa
18%
16.6°
3
Windvlaag: 0.8 m/s
28%
11:00
23°
1016.9 hPa
27%
15.4°
3
Windvlaag: 1.2 m/s
66%
12:00
23°
1016.6 hPa
37%
14.5°
3
Windvlaag: 1.5 m/s
73%
13:00
24°
1016.0 hPa
42%
13.6°
3
Windvlaag: 1.1 m/s
68%
14:00
25°
1015.4 hPa
91%
13.2°
3
Windvlaag: 0.9 m/s
86%
15:00
25°
1015.1 hPa
85%
12.8°
3
Windvlaag: 0.6 m/s
82%
16:00
25°
1015.0 hPa
84%
12.7°
2
Windvlaag: 0.3 m/s
80%
17:00
25°
1015.0 hPa
43%
12.5°
2
Windvlaag: -0 m/s
83%
18:00
24°
1014.7 hPa
90%
12.6°
2
Windvlaag: -0 m/s
81%
19:00
24°
1015.3 hPa
48%
13.7°
1
Windvlaag: -0.6 m/s
69%
20:00
22°
1016.0 hPa
44%
14.5°
2
Windvlaag: -0.5 m/s
79%
21:00
21°
1016.5 hPa 1.3 mm
94%
16.6°
1
Windvlaag: 0.2 m/s
57%
22:00
19°
1017.1 hPa 1.4 mm
100%
15.3°
1
Windvlaag: 0.1 m/s
70%
23:00
19°
1017.4 hPa 1.4 mm
99%
15.1°
1
Windvlaag: 0.3 m/s
65%
 05:02     21:04    Daglengte: 16:02 Zaterdag 22 Jun
00:00
18°
1017.7 hPa 1.7 mm
100%
15.6°
1
Windvlaag: 0.5 m/s
68%
01:00
18°
1017.8 hPa 1.9 mm
98%
15.9°
1
Windvlaag: 0.7 m/s
78%
02:00
17°
1017.9 hPa 1.6 mm
94%
16.1°
1
Windvlaag: 0.6 m/s
89%
03:00
17°
1017.8 hPa
93%
15.8°
1
Windvlaag: 0.7 m/s
86%
04:00
17°
1018.0 hPa
92%
15.7°
1
Windvlaag: 1 m/s
90%
05:00
17°
1018.0 hPa 1.6 mm
96%
15.6°
2
Windvlaag: 1.1 m/s
93%
06:00
18°
1018.1 hPa 1.5 mm
97%
16.4°
1
Windvlaag: 0.9 m/s
89%
07:00
18°
1018.4 hPa 1.7 mm
96%
16.4°
2
Windvlaag: 1.1 m/s
97%
08:00
19°
1018.5 hPa 1.7 mm
95%
16.9°
1
Windvlaag: 1.6 m/s
94% warningclass
09:00
20°
1018.1 hPa 2.3 mm
100%
17.2°
2
Windvlaag: 8.3 m/s
88% warningclass
10:00
20°
1017.7 hPa 2.2 mm
100%
17.4°
3
Windvlaag: 7.4 m/s
77% warningclass
11:00
21°
1017.4 hPa
100%
17.6°
4
Windvlaag: 6.7 m/s
87%
12:00
22°
1017.0 hPa 2.1 mm
100%
17.7°
5
Windvlaag: 6.8 m/s
87% warningclass
Temp/Neerslag /Baro Onweer/Dauwpunt
    Temp Baro Neerslag Dauwpunt Wind Bewolking  
 05:01     21:03    Daglengte: 16:02 Vandaag
14:00
29°
Voelt als: 28.9°
1010.8 hPa   13.4°
2
19%
17:00
29°
Voelt als: 28.3°
1009.8 hPa   13.6°
3
80%
20:00
26°
1010.0 hPa   15.7°
2
66%
23:00
22°
1011.2 hPa   16.8°
1
43%
 05:01     21:04    Daglengte: 16:03 Morgen
02:00
19°
1011.2 hPa   15.7°
1
17%
05:00
17°
1011.5 hPa   13.9°
1
4%
08:00
22°
1011.9 hPa   14.6°
1
2%
11:00
28°
1011.4 hPa   14.9°
2
4%
14:00
29°
Voelt als: 28.9°
1010.7 hPa   14.2°
3
18%
17:00
29°
Voelt als: 28.0°
1010.1 hPa   12.7°
2
42%
20:00
25°
1011.6 hPa   15.1°
3
70%
23:00
21°
1013.7 hPa 3.2 mm 17.9°
3
67%
 05:02     21:04    Daglengte: 16:02 Vrijdag 21 Jun
02:00
19°
1015.1 hPa 2.4 mm 17.5°
3
57%
05:00
18°
1015.5 hPa 4.9 mm 16.6°
3
62%
08:00
20°
1016.2 hPa 2.0 mm 16.1°
3
62%
11:00
23°
1016.9 hPa   15.4°
3
66%
14:00
25°
1015.4 hPa   13.2°
3
86%
17:00
25°
1015.0 hPa   12.5°
2
83%
20:00
22°
1016.0 hPa   14.5°
2
79%
23:00
19°
1017.4 hPa 4.1 mm 15.1°
1
65%
 05:02     21:04    Daglengte: 16:02 Zaterdag 22 Jun
02:00
17°
1017.9 hPa 5.2 mm 16.1°
1
89%
05:00
17°
1018.0 hPa 1.6 mm 15.6°
2
93%
08:00
19°
1018.5 hPa 4.8 mm 16.9°
1
94% warningclass
11:00
21°
1017.4 hPa 4.4 mm 17.6°
4
87% warningclass
14:00
23°
1016.2 hPa 6.2 mm 17.5°
5
89% warningclass
17:00
21°
1015.5 hPa 23.2 mm 18.0°
5
88%
20:00
20°
1015.2 hPa 30.2 mm 17.8°
5
90%
23:00
19°
1015.7 hPa 36.4 mm 17.3°
4
91%
 05:02     21:04    Daglengte: 16:02 Zondag 23 Jun
02:00
18°
1016.1 hPa 40.4 mm 16.7°
3
92%
05:00
18°
1016.5 hPa 49.5 mm 17.0°
3
91%
08:00
18°
1016.9 hPa 55.7 mm 17.2°
3
91%
11:00
19°
1017.6 hPa 59.4 mm 17.1°
3
90%
14:00
21°
1018.4 hPa 64.3 mm 16.9°
3
90%
17:00
21°
1018.9 hPa 64.7 mm 17.3°
2
88%
20:00
21°
1019.6 hPa 65.5 mm 17.4°
1
87%
23:00
20°
1020.5 hPa 65.7 mm 17.3°
1
89%
 05:03     21:04    Daglengte: 16:01 Maandag 24 Jun
02:00
18°
1021.3 hPa 65.7 mm 17.2°
2
92%
05:00
19°
1022.0 hPa 65.7 mm 16.5°
1
89%
08:00
19°
1022.8 hPa 65.7 mm 15.9°
1
87%
11:00
23°
1022.5 hPa 65.7 mm 15.7°
2
89%
14:00
26°
1022.1 hPa 65.7 mm 14.5°
3
91%
17:00
25°
1022.3 hPa 65.8 mm 15.6°
2
47%
20:00
23°
1022.5 hPa 65.8 mm 16.6°
2
2%
23:00
20°
1023.5 hPa 65.8 mm 15.9°
1
13%
 05:03     21:04    Daglengte: 16:01 Dinsdag 25 Jun
02:00
17°
1024.4 hPa 65.8 mm 14.9°
1
24%
05:00
18°
1024.8 hPa 65.8 mm 14.4°
1
23%
08:00
20°
1025.2 hPa 65.8 mm 13.8°
2
22%
11:00
24°
1024.4 hPa 65.8 mm 14.8°
3
11%
14:00
27°
1023.7 hPa 65.8 mm 15.6°
5
0%
17:00
27°
1023.3 hPa 65.8 mm 16.8°
4
0%
20:00
25°
1023.0 hPa 65.8 mm 17.6°
3
0%
23:00
23°
1023.9 hPa 65.8 mm 17.5°
3
0%
 05:03     21:04    Daglengte: 16:01 Woensdag 26 Jun
02:00
20°
1024.6 hPa 65.8 mm 17.0°
3
0%
05:00
21°
1024.3 hPa 65.8 mm 16.7°
4
0%
08:00
22°
1024.0 hPa 65.8 mm 16.5°
4
0%
11:00
27°
1022.7 hPa   18.2°
5
30%
14:00
31°
1021.4 hPa 131.7 mm 19.1°
6
61%
20:00
27°
1020.2 hPa 131.7 mm 19.1°
5
0%
 05:04     21:04    Daglengte: 16:00 Donderdag 27 Jun
02:00
21°
1020.5 hPa 131.7 mm 17.9°
3
0%
08:00
23°
1019.9 hPa 131.7 mm 18.2°
2
0%
14:00
32°
1017.8 hPa 131.7 mm 19.8°
1
1%
20:00
29°
1016.2 hPa 131.7 mm 22.7°
2
0%
 05:04     21:04    Daglengte: 16:00 Vrijdag 28 Jun
02:00
22°
1017.3 hPa 131.7 mm 17.9°
2
0%
08:00
25°
1017.3 hPa 131.7 mm 18.5°
2
0%
14:00
35°
1015.0 hPa 131.7 mm 17.6°
3
0%
20:00
31°
1013.2 hPa 131.9 mm 24.6°
1
2%
 05:05     21:04    Daglengte: 15:59 Zaterdag 29 Jun
02:00
23°
1013.9 hPa 133.0 mm 19.1°
2
0%
08:00
22°
1014.1 hPa 0.4 mm 18.1°
1
24%
14:00
29°
1012.8 hPa 0.5 mm 17.6°
1
23%
20:00
25°
1012.7 hPa 0.6 mm 19.3°
1
33%
 05:05     21:04    Daglengte: 15:59 Zondag 30 Jun
02:00
17°
1014.1 hPa 0.4 mm 15.4°
0
38%
08:00
21°
1014.2 hPa 0.6 mm 16.9°
0
29%
14:00
28°
1012.8 hPa 0.9 mm 17.4°
0
37%
20:00
24°
1012.6 hPa 2.2 mm 19.5°
0
46%
 05:06     21:04    Daglengte: 15:58 Maandag 01 Jul
02:00
18°
1014.0 hPa 1.5 mm 16.1°
1
48%
08:00
20°
1014.1 hPa 1.2 mm 17.4°
1
36%
14:00
27°
1012.7 hPa 1.4 mm 17.0°
1
38%
20:00
22°
1012.7 hPa 1.6 mm 18.2°
1
47%
 05:07     21:03    Daglengte: 15:56 Dinsdag 02 Jul
02:00
16°
1014.2 hPa 1.6 mm 14.7°
1
43%
08:00
19°
1014.6 hPa 1.8 mm 15.7°
2
39%
14:00
26°
1013.4 hPa 0.9 mm 15.4°
2
36%
20:00
22°
1013.4 hPa 1.6 mm 17.1°
1
48%
 05:07     21:03    Daglengte: 15:56 Woensdag 03 Jul
02:00
15°
1015.0 hPa 0.7 mm 13.4°
1
37%
08:00
18°
1015.6 hPa 0.8 mm 14.7°
1
46%
14:00
23°
1015.1 hPa 2.3 mm 15.0°
2
45%
20:00
20°
1015.2 hPa 2.2 mm 15.9°
1
44%
 05:08     21:03    Daglengte: 15:55 Donderdag 04 Jul
02:00
13°
1016.6 hPa 2.2 mm 12.0°
1
45%
08:00
17°
1016.9 hPa 2.4 mm 13.8°
1
36%
  CAPE Lifted Index Hail Supercell Tornado SRH 3km CL BTM PRES CL TOP PRES Swiss DWD icon SMHI TS
 05:01     21:03    Daglengte: 16:02 Vandaag
13:00 1170 J/kg -4.6 K 0 % 0 % 0 % 0 m²/s² 0 0 1.04 0
14:00 1061 J/kg -4.1 K 0 % 0 % 0 % 0 m²/s² 0 0 -0.26 3
15:00 1026 J/kg -4.2 K 0 % 0 % 0 % 0 m²/s² 0 0 -1.65 2
16:00 1286 J/kg -5.2 K 0 % 0 % 0 % 0 m²/s² 0 0 -3.49 1
17:00 225 J/kg -4.0 K 0 % 0 % 0 % 0 m²/s² 0 0 -2.41 2
18:00 0 J/kg -0.9 K 0 % 0 % 0 % 0 m²/s² 0 0 0.36 3
19:00 0 J/kg 2.4 K 0 % 0 % 0 % 0 m²/s² 0 0 3.3 3
20:00 0 J/kg 2.9 K 0 % 0 % 0 % 0 m²/s² 0 0 3.98 3
21:00 0 J/kg 1.9 K 0 % 0 % 0 % 0 m²/s² 0 0 3.13 3
22:00 0 J/kg 2.0 K 0 % 0 % 0 % 0 m²/s² 0 0 3.32 3
23:00 0 J/kg 0.3 K 0 % 0 % 0 % 0 m²/s² 0 0 1.26 3
 05:01     21:04    Daglengte: 16:03 Morgen
00:00 0 J/kg -0.1 K 0 % 0 % 0 % 0 m²/s² 0 0 0.71 2
01:00 0 J/kg -0.8 K 0 % 0 % 0 % 0 m²/s² 0 0 -0.08 2
02:00 0 J/kg 0.4 K 0 % 0 % 0 % 0 m²/s² 0 0 1.42 3
03:00 0 J/kg 0.8 K 0 % 0 % 0 % 0 m²/s² 0 0 2.54 3
04:00 0 J/kg 0.6 K 0 % 0 % 0 % 0 m²/s² 0 0 3.69 0
05:00 0 J/kg 0.1 K 0 % 0 % 0 % 0 m²/s² 0 0 3.55 0
06:00 0 J/kg 0.1 K 0 % 0 % 0 % 0 m²/s² 0 0 4.03 1
07:00 0 J/kg 0.2 K 0 % 0 % 0 % 0 m²/s² 0 0 4.46 0
08:00 0 J/kg -0.5 K 0 % 0 % 0 % 0 m²/s² 0 0 3.55 0
09:00 5 J/kg -0.6 K 0 % 0 % 0 % 0 m²/s² 0 0 3.45 1
10:00 98 J/kg -1.0 K 0 % 0 % 0 % 0 m²/s² 0 0 3.14 0
11:00 456 J/kg -2.1 K 0 % 0 % 0 % 0 m²/s² 0 0 1.95 0
12:00 774 J/kg -2.8 K 0 % 0 % 0 % 0 m²/s² 0 0 1.04 0
13:00 969 J/kg -3.6 K 0 % 0 % 0 % 0 m²/s² 0 0 0.36 0
14:00 1100 J/kg -4.1 K 0 % 0 % 0 % 0 m²/s² 0 0 -0.44 0
15:00 1100 J/kg -4.0 K 0 % 0 % 0 % 0 m²/s² 0 0 -1.45 0
16:00 1121 J/kg -4.0 K 0 % 0 % 0 % 0 m²/s² 0 0 -1.81 0
17:00 1209 J/kg -4.8 K 0 % 0 % 0 % 0 m²/s² 0 0 -3 3
18:00 1221 J/kg -4.0 K 0 % 0 % 0 % 0 m²/s² 0 0 -2.38 80
19:00 1437 J/kg -4.6 K 0 % 0 % 0 % 0 m²/s² 0 0 -2.53 80
20:00 704 J/kg -5.6 K 0 % 0 % 0 % 0 m²/s² 0 0 -4.85 3
21:00 147 J/kg -3.8 K 0 % 0 % 0 % 0 m²/s² 0 0 -2.93 61
22:00 0 J/kg -0.7 K 0 % 0 % 0 % 0 m²/s² 0 0 -0.07 61
23:00 0 J/kg -0.4 K 0 % 0 % 0 % 0 m²/s² 0 0 1.22 3
 05:02     21:04    Daglengte: 16:02 Vrijdag 21 Jun
00:00 0 J/kg -0.5 K 0 % 0 % 0 % 0 m²/s² 0 0 0.94 2
01:00 0 J/kg -0.5 K 0 % 0 % 0 % 0 m²/s² 0 0 0.55 3
02:00 0 J/kg -0.8 K 0 % 0 % 0 % 0 m²/s² 0 0 -0.26 80
03:00 0 J/kg -1.1 K 0 % 0 % 0 % 0 m²/s² 0 0 0.01 95
04:00 0 J/kg 0.1 K 0 % 0 % 0 % 0 m²/s² 0 0 1.84 80
05:00 0 J/kg -0.1 K 0 % 0 % 0 % 0 m²/s² 0 0 1.58 3
06:00 0 J/kg 0.9 K 0 % 0 % 0 % 0 m²/s² 0 0 2.64 3
07:00 0 J/kg 1.1 K 0 % 0 % 0 % 0 m²/s² 0 0 2.72 3
08:00 0 J/kg 1.4 K 0 % 0 % 0 % 0 m²/s² 0 0 2.63 3
09:00 0 J/kg 0.7 K 0 % 0 % 0 % 0 m²/s² 0 0 1.6 3
10:00 107 J/kg -0.6 K 0 % 0 % 0 % 0 m²/s² 0 0 0.15 2
11:00 287 J/kg -1.1 K 0 % 0 % 0 % 0 m²/s² 0 0 -0.2 2
12:00 442 J/kg -1.6 K 0 % 0 % 0 % 0 m²/s² 0 0 -0.7 0
13:00 486 J/kg -2.0 K 0 % 0 % 0 % 0 m²/s² 0 0 -0.77 3
14:00 571 J/kg -2.1 K 0 % 0 % 0 % 0 m²/s² 0 0 -0.42 3
15:00 706 J/kg -2.5 K 0 % 0 % 0 % 0 m²/s² 0 0 -1 3
16:00 840 J/kg -3.0 K 0 % 0 % 0 % 0 m²/s² 0 0 -1.74 3
17:00 873 J/kg -3.3 K 0 % 0 % 0 % 0 m²/s² 0 0 -1.92 3
18:00 36 J/kg -1.4 K 0 % 0 % 0 % 0 m²/s² 0 0 0.73 3
19:00 3 J/kg -1.9 K 0 % 0 % 0 % 0 m²/s² 0 0 -0.4 2
20:00 1 J/kg -1.6 K 0 % 0 % 0 % 0 m²/s² 0 0 0.14 3
21:00 0 J/kg -1.4 K 0 % 0 % 0 % 0 m²/s² 0 0 0.52 3
22:00 0 J/kg -2.2 K 0 % 0 % 0 % 0 m²/s² 0 0 -0.76 80
23:00 0 J/kg -1.9 K 0 % 0 % 0 % 0 m²/s² 0 0 -0.46 80
 05:02     21:04    Daglengte: 16:02 Zaterdag 22 Jun
00:00 0 J/kg -2.3 K 0 % 0 % 0 % 0 m²/s² 0 0 -1.13 80
01:00 0 J/kg -1.8 K 0 % 0 % 0 % 0 m²/s² 0 0 -0.57 80
02:00 0 J/kg -2.3 K 0 % 0 % 0 % 0 m²/s² 0 0 -0.92 80
03:00 0 J/kg -2.4 K 0 % 0 % 0 % 0 m²/s² 0 0 -0.6 3
04:00 0 J/kg -3.1 K 0 % 0 % 0 % 0 m²/s² 0 0 -1.3 3
05:00 0 J/kg -3.5 K 0 % 0 % 0 % 0 m²/s² 0 0 -2 61
06:00 0 J/kg -2.8 K 0 % 0 % 0 % 0 m²/s² 0 0 -1.84 61
07:00 170 J/kg -2.6 K 0 % 0 % 0 % 0 m²/s² 0 0 -1.7 61
08:00 908 J/kg -4.0 K 0 % 0 % 0 % 0 m²/s² 0 0 -3.19 61
09:00 1615 J/kg -5.9 K 0 % 0 % 0 % 0 m²/s² 0 0 -5.09 61
10:00 2145 J/kg -7.0 K 0 % 0 % 0 % 0 m²/s² 0 0 -6.19 61
11:00 2555 J/kg -7.9 K 0 % 0 % 0 % 0 m²/s² 0 0 -6.85 3
12:00 2811 J/kg -8.9 K 0 % 0 % 0 % 0 m²/s² 0 0 -7.46 3
Temp Baro Wind Neerslag
  EWN Forecast EWN WRFDA DWD ICON FMI HIRLAM MET Norway GFS
 05:01     21:03    Daglengte: 16:02 Vandaag
14:00 29.5° 1010.8 hPa 1.9 m/s 0.0 mm 27.3° 1010.9 hPa 1.3 m/s 0.0 mm 28.6° 1011.1 hPa 1.8 m/s -2.0 mm 29.4° 1011.1 hPa 2.1 m/s 0.0 mm 30.0° 1010.4 hPa 1.7 m/s 0.0 mm 29.1° 1012.0 hPa 1.3 m/s
17:00 28.7° 1009.8 hPa 2.8 m/s 0.0 mm 20.4° 1012.0 hPa 6.3 m/s 0.6 mm 28.9° 1009.5 hPa 3.0 m/s 0.0 mm 29.5° 1010.6 hPa 2.5 m/s 0.0 mm 29.1° 1009.5 hPa 2.6 m/s 0.0 mm 24.7° 1011.4 hPa 5.0 m/s
20:00 26.1° 1010.0 hPa 1.7 m/s 0.0 mm 18.4° 1011.0 hPa 1.9 m/s 11.5 mm 25.4° 1009.6 hPa 1.2 m/s 0.0 mm 27.7° 1010.6 hPa 0.9 m/s 0.0 mm 26.6° 1009.9 hPa 1.5 m/s 0.0 mm 17.7° 1011.8 hPa 0.8 m/s
23:00 22.0° 1011.2 hPa 1.4 m/s 0.0 mm 15.4° 1011.8 hPa 2.2 m/s 14.4 mm 20.5° 1011.3 hPa 1.8 m/s 0.0 mm 22.4° 1012.1 hPa 1.3 m/s 0.0 mm 22.6° 1010.9 hPa 0.7 m/s 0.0 mm 15.3° 1012.6 hPa 0.5 m/s
 05:01     21:04    Daglengte: 16:03 Morgen
02:00 18.6° 1011.2 hPa 1.1 m/s 0.0 mm 15.2° 1011.4 hPa 1.1 m/s 14.4 mm 17.6° 1011.4 hPa 1.0 m/s 0.0 mm 19.5° 1012.3 hPa 1.6 m/s 0.0 mm 18.6° 1010.8 hPa 0.8 m/s 0.0 mm 14.9° 1012.9 hPa 0.6 m/s
05:00 17.3° 1011.5 hPa 1.3 m/s 0.0 mm 13.8° 1010.6 hPa 3.2 m/s 14.4 mm 16.2° 1011.6 hPa 0.8 m/s 0.0 mm 17.4° 1013.0 hPa 1.4 m/s 0.0 mm 17.4° 1011.5 hPa 1.1 m/s 0.0 mm 14.5° 1012.7 hPa 0.7 m/s
08:00 21.8° 1011.9 hPa 0.9 m/s 0.0 mm 19.7° 1011.7 hPa 1.5 m/s 14.4 mm 20.5° 1012.2 hPa 0.3 m/s 0.0 mm 21.7° 1012.5 hPa 2.1 m/s 0.0 mm 22.3° 1011.9 hPa 0.1 m/s 0.0 mm 19.4° 1013.2 hPa 1.7 m/s
11:00 27.7° 1011.4 hPa 2.2 m/s 0.0 mm 24.3° 1011.5 hPa 3.4 m/s 14.4 mm 26.1° 1011.9 hPa 2.7 m/s 0.0 mm 27.4° 1011.5 hPa 1.8 m/s 0.0 mm 28.6° 1011.2 hPa 1.4 m/s 0.0 mm 25.0° 1012.4 hPa 1.9 m/s
14:00 29.2° 1010.7 hPa 3.1 m/s 0.0 mm 27.4° 1010.6 hPa 2.4 m/s 14.4 mm 29.0° 1010.9 hPa 3.9 m/s 0.0 mm 30.6° 1010.2 hPa 2.0 m/s 0.0 mm 28.4° 1011.1 hPa 3.1 m/s 0.0 mm 28.3° 1011.1 hPa 1.5 m/s
17:00 28.5° 1010.1 hPa 2.3 m/s 0.0 mm 27.6° 1010.2 hPa 1.5 m/s 14.4 mm 28.5° 1010.1 hPa 4.0 m/s 0.0 mm 31.7° 1009.4 hPa 2.5 m/s 0.0 mm 28.6° 1010.8 hPa 1.0 m/s 0.0 mm 27.5° 1011.5 hPa 2.4 m/s
20:00 25.4° 1011.6 hPa 2.5 m/s 0.0 mm 23.4° 1011.4 hPa 3.9 m/s 14.4 mm 19.8° 1014.6 hPa 4.4 m/s 1.8 mm 28.8° 1009.9 hPa 2.9 m/s 0.0 mm 25.8° 1011.8 hPa 1.7 m/s 0.0 mm 18.0° 1013.3 hPa 3.6 m/s
23:00 21.0° 1013.7 hPa 3.1 m/s 3.2 mm 17.2° 1013.6 hPa 3.0 m/s 17.3 mm 18.6° 1015.0 hPa 3.6 m/s 0.8 mm 24.0° 1012.2 hPa 2.3 m/s 0.0 mm 20.9° 1014.4 hPa 3.7 m/s 1.3 mm 16.8° 1015.7 hPa 1.6 m/s
 05:02     21:04    Daglengte: 16:02 Vrijdag 21 Jun
02:00 19.1° 1015.1 hPa 3.2 m/s 2.4 mm 16.5° 1014.7 hPa 3.8 m/s 18.0 mm 17.6° 1016.3 hPa 2.8 m/s 0.3 mm 20.8° 1013.3 hPa 1.6 m/s 0.0 mm 18.9° 1016.0 hPa 3.2 m/s 1.6 mm 16.1° 1016.3 hPa 1.2 m/s
05:00 18.2° 1015.5 hPa 2.6 m/s 4.9 mm 14.2° 1015.0 hPa 2.7 m/s 18.1 mm 16.8° 1016.7 hPa 2.0 m/s 1.3 mm 20.5° 1013.6 hPa 2.6 m/s 0.0 mm 18.2° 1016.3 hPa 2.3 m/s 3.2 mm 15.0° 1016.7 hPa 0.8 m/s
08:00 19.5° 1016.2 hPa 2.9 m/s 2.0 mm 18.8° 1015.6 hPa 3.0 m/s 18.1 mm 18.8° 1017.3 hPa 2.8 m/s 0.0 mm 21.4° 1014.2 hPa 3.8 m/s 0.0 mm 19.7° 1017.1 hPa 2.0 m/s 0.0 mm 18.6° 1017.3 hPa 0.8 m/s
11:00 22.5° 1016.9 hPa 3.1 m/s 0.0 mm 22.8° 1016.1 hPa 2.8 m/s 18.1 mm 22.5° 1017.1 hPa 3.7 m/s 0.0 mm 23.7° 1017.0 hPa 2.1 m/s 0.0 mm 22.4° 1017.3 hPa 1.1 m/s
14:00 24.7° 1015.4 hPa 2.6 m/s 0.0 mm 25.6° 1014.3 hPa 1.7 m/s 18.1 mm 24.8° 1016.0 hPa 3.2 m/s 0.0 mm 26.3° 1015.0 hPa 2.1 m/s 0.0 mm 25.8° 1016.1 hPa 1.4 m/s
17:00 25.0° 1015.0 hPa 2.5 m/s 0.0 mm 25.4° 1014.6 hPa 3.5 m/s 18.1 mm 24.5° 1015.5 hPa 2.6 m/s 0.0 mm 27.1° 1014.3 hPa 1.9 m/s 0.0 mm 24.3° 1015.5 hPa 1.0 m/s
20:00 22.3° 1016.0 hPa 1.7 m/s 0.0 mm 20.9° 1014.6 hPa 0.9 m/s 18.1 mm 22.3° 1016.1 hPa 1.7 m/s 0.0 mm 23.7° 1015.9 hPa 3.1 m/s 0.0 mm 20.9° 1015.6 hPa 0.7 m/s
23:00 18.5° 1017.4 hPa 0.8 m/s 4.1 mm 16.8° 1015.2 hPa 0.6 m/s 18.1 mm 18.0° 1018.1 hPa 0.5 m/s 0.8 mm 20.5° 1017.4 hPa 1.5 m/s 0.5 mm 17.0° 1017.0 hPa 0.8 m/s
 05:02     21:04    Daglengte: 16:02 Zaterdag 22 Jun
02:00 17.3° 1017.9 hPa 1.0 m/s 5.2 mm 16.3° 1014.7 hPa 2.4 m/s 18.1 mm 17.2° 1018.5 hPa 0.3 m/s 1.8 mm 18.5° 1018.1 hPa 1.0 m/s 2.3 mm 16.4° 1016.9 hPa 0.6 m/s
05:00 16.9° 1018.0 hPa 1.7 m/s 1.6 mm 16.2° 1013.6 hPa 2.8 m/s 18.1 mm 16.7° 1018.7 hPa 0.3 m/s 0.3 mm 18.0° 1018.3 hPa 1.9 m/s 2.8 mm 16.3° 1016.0 hPa 1.1 m/s
08:00 18.7° 1018.5 hPa 1.3 m/s 4.8 mm 21.3° 1013.2 hPa 5.5 m/s 18.1 mm 17.6° 1019.6 hPa 0.8 m/s 1.4 mm 18.7° 1018.8 hPa 0.5 m/s 1.6 mm 18.3° 1016.0 hPa 1.6 m/s
11:00 21.0° 1017.4 hPa 3.7 m/s 4.4 mm 25.0° 1012.8 hPa 6.5 m/s 18.1 mm 20.0° 1018.9 hPa 4.1 m/s 0.7 mm 20.6° 1017.6 hPa 2.7 m/s 21.8° 1015.4 hPa 4.2 m/s
14:00 22.9° 1016.2 hPa 5.4 m/s 6.2 mm 27.4° 1011.4 hPa 6.0 m/s 18.1 mm 21.5° 1017.9 hPa 5.9 m/s 0.3 mm 22.6° 1016.5 hPa 4.9 m/s 23.3° 1014.2 hPa 5.0 m/s
17:00 21.0° 1015.5 hPa 4.9 m/s 23.2 mm 20.8° 1015.7 hPa 4.9 m/s 23.1° 1013.4 hPa 4.9 m/s 23.2 mm
20:00 19.8° 1015.2 hPa 4.8 m/s 30.2 mm 19.9° 1015.3 hPa 4.9 m/s 19.2° 1013.7 hPa 3.1 m/s 30.2 mm
23:00 18.8° 1015.7 hPa 3.9 m/s 36.4 mm 18.9° 1015.8 hPa 4.1 m/s 18.1° 1015.1 hPa 2.2 m/s 36.4 mm
 05:02     21:04    Daglengte: 16:02 Zondag 23 Jun
02:00 17.9° 1016.1 hPa 3.1 m/s 40.4 mm 17.9° 1016.2 hPa 3.3 m/s 17.4° 1015.2 hPa 1.1 m/s 40.4 mm
05:00 18.0° 1016.5 hPa 2.9 m/s 49.5 mm 18.1° 1016.5 hPa 3.1 m/s 16.8° 1015.4 hPa 0.6 m/s 49.5 mm
08:00 18.1° 1016.9 hPa 2.8 m/s 55.7 mm 18.3° 1016.9 hPa 2.9 m/s 16.3° 1016.6 hPa 1.6 m/s 55.7 mm
11:00 19.3° 1017.6 hPa 3.1 m/s 59.4 mm 19.6° 1017.6 hPa 3.2 m/s 16.5° 1017.5 hPa 2.2 m/s 59.4 mm
14:00 20.6° 1018.4 hPa 3.4 m/s 64.3 mm 20.9° 1018.4 hPa 3.5 m/s 16.9° 1017.9 hPa 2.0 m/s 64.3 mm
17:00 20.9° 1018.9 hPa 2.0 m/s 64.7 mm 21.0° 1019.0 hPa 2.0 m/s 18.8° 1017.9 hPa 2.0 m/s 64.7 mm
20:00 20.9° 1019.6 hPa 0.7 m/s 65.5 mm 21.2° 1019.6 hPa 0.6 m/s 18.2° 1019.1 hPa 1.8 m/s 65.5 mm
23:00 19.6° 1020.5 hPa 1.1 m/s 65.7 mm 19.9° 1020.4 hPa 1.1 m/s 16.3° 1021.3 hPa 1.6 m/s 65.7 mm
 05:03     21:04    Daglengte: 16:01 Maandag 24 Jun
02:00 18.5° 1021.3 hPa 1.6 m/s 65.7 mm 18.7° 1021.2 hPa 1.6 m/s 15.7° 1021.9 hPa 1.2 m/s 65.7 mm
05:00 18.8° 1022.0 hPa 1.2 m/s 65.7 mm 19.1° 1022.0 hPa 1.2 m/s 14.4° 1022.2 hPa 0.8 m/s 65.7 mm
08:00 19.5° 1022.8 hPa 0.8 m/s 65.7 mm 19.6° 1022.8 hPa 0.8 m/s 18.3° 1023.2 hPa 0.8 m/s 65.7 mm
11:00 22.8° 1022.5 hPa 1.8 m/s 65.7 mm 22.7° 1022.5 hPa 1.8 m/s 23.5° 1023.0 hPa 1.0 m/s 65.7 mm
14:00 25.9° 1022.1 hPa 2.7 m/s 65.7 mm 25.8° 1022.1 hPa 2.9 m/s 27.2° 1022.2 hPa 0.6 m/s 65.7 mm
17:00 24.8° 1022.3 hPa 2.5 m/s 65.8 mm 24.6° 1022.3 hPa 2.5 m/s 26.1° 1022.1 hPa 1.6 m/s 65.8 mm
20:00 23.4° 1022.5 hPa 2.1 m/s 65.8 mm 23.5° 1022.5 hPa 2.2 m/s 22.3° 1023.0 hPa 1.4 m/s 65.8 mm
23:00 20.2° 1023.5 hPa 1.4 m/s 65.8 mm 20.4° 1023.4 hPa 1.4 m/s 18.4° 1025.2 hPa 1.2 m/s 65.8 mm
 05:03     21:04    Daglengte: 16:01 Dinsdag 25 Jun
02:00 17.3° 1024.4 hPa 0.7 m/s 65.8 mm 17.3° 1024.3 hPa 0.6 m/s 17.0° 1025.4 hPa 1.4 m/s 65.8 mm
05:00 18.5° 1024.8 hPa 1.3 m/s 65.8 mm 18.8° 1024.8 hPa 1.2 m/s 15.1° 1025.1 hPa 1.5 m/s 65.8 mm
08:00 20.2° 1025.2 hPa 1.9 m/s 65.8 mm 20.3° 1025.2 hPa 1.9 m/s 19.6° 1025.0 hPa 1.9 m/s 65.8 mm
11:00 24.0° 1024.4 hPa 3.2 m/s 65.8 mm 23.9° 1024.5 hPa 3.3 m/s 24.7° 1024.4 hPa 2.6 m/s 65.8 mm
14:00 27.5° 1023.7 hPa 4.6 m/s 65.8 mm 27.5° 1023.7 hPa 4.7 m/s 27.1° 1023.3 hPa 3.6 m/s 65.8 mm
17:00 26.6° 1023.3 hPa 4.0 m/s 65.8 mm 26.6° 1023.4 hPa 4.0 m/s 26.7° 1022.7 hPa 4.1 m/s 65.8 mm
20:00 25.3° 1023.0 hPa 3.2 m/s 65.8 mm 25.6° 1023.0 hPa 3.3 m/s 21.8° 1023.3 hPa 2.5 m/s 65.8 mm
23:00 22.6° 1023.9 hPa 3.2 m/s 65.8 mm 23.0° 1023.8 hPa 3.3 m/s 18.2° 1025.2 hPa 1.9 m/s 65.8 mm
 05:03     21:04    Daglengte: 16:01 Woensdag 26 Jun
02:00 20.1° 1024.6 hPa 3.1 m/s 65.8 mm 20.4° 1024.6 hPa 3.3 m/s 17.1° 1024.8 hPa 1.5 m/s 65.8 mm
05:00 20.8° 1024.3 hPa 3.8 m/s 65.8 mm 21.2° 1024.3 hPa 4.0 m/s 15.8° 1024.0 hPa 1.4 m/s 65.8 mm
08:00 21.9° 1024.0 hPa 4.4 m/s 65.8 mm 22.0° 1024.0 hPa 4.7 m/s 20.8° 1023.8 hPa 1.5 m/s 65.8 mm
11:00 26.5° 1022.7 hPa 5.1 m/s 65.8 mm 26.6° 1022.7 hPa 5.3 m/s 26.4° 1022.9 hPa 2.6 m/s 65.8 mm
14:00 31.0° 1021.4 hPa 5.7 m/s 65.8 mm 31.1° 1021.4 hPa 5.9 m/s 29.5° 1021.6 hPa 3.3 m/s 65.8 mm
20:00 26.9° 1020.2 hPa 5.2 m/s 65.8 mm 27.1° 1020.1 hPa 5.5 m/s 24.1° 1021.0 hPa 2.5 m/s 65.8 mm
 05:04     21:04    Daglengte: 16:00 Donderdag 27 Jun
02:00 21.0° 1020.5 hPa 3.0 m/s 65.8 mm 21.1° 1020.4 hPa 3.1 m/s 19.8° 1022.1 hPa 2.0 m/s 65.8 mm
08:00 23.0° 1019.9 hPa 2.3 m/s 65.8 mm 23.0° 1019.8 hPa 2.3 m/s 23.4° 1020.6 hPa 2.1 m/s 65.8 mm
14:00 31.9° 1017.8 hPa 0.7 m/s 65.8 mm 31.7° 1017.8 hPa 0.4 m/s 33.6° 1018.2 hPa 3.6 m/s 65.8 mm
20:00 29.0° 1016.2 hPa 1.5 m/s 65.8 mm 29.1° 1016.2 hPa 1.5 m/s 27.4° 1016.6 hPa 1.7 m/s 65.8 mm
 05:04     21:04    Daglengte: 16:00 Vrijdag 28 Jun
02:00 22.3° 1017.3 hPa 1.7 m/s 65.8 mm 22.4° 1017.3 hPa 1.8 m/s 21.0° 1017.3 hPa 1.1 m/s 65.8 mm
08:00 25.0° 1017.3 hPa 1.5 m/s 65.8 mm 25.1° 1017.4 hPa 1.6 m/s 24.2° 1016.7 hPa 0.6 m/s 65.8 mm
14:00 34.6° 1015.0 hPa 2.9 m/s 65.8 mm 34.8° 1015.0 hPa 2.9 m/s 32.0° 1015.5 hPa 3.1 m/s 65.8 mm
20:00 31.4° 1013.2 hPa 1.3 m/s 66.0 mm 31.7° 1013.0 hPa 1.3 m/s 28.4° 1015.4 hPa 1.4 m/s 66.0 mm
 05:05     21:04    Daglengte: 15:59 Zaterdag 29 Jun
02:00 22.9° 1013.9 hPa 1.6 m/s 66.9 mm 22.9° 1013.5 hPa 1.6 m/s 23.0° 1017.8 hPa 1.0 m/s 66.9 mm
08:00 22.2° 1014.1 hPa 0.6 m/s 0.4 mm
14:00 29.4° 1012.8 hPa 1.4 m/s 0.5 mm
20:00 25.0° 1012.7 hPa 0.9 m/s 0.6 mm
 05:05     21:04    Daglengte: 15:59 Zondag 30 Jun
02:00 17.3° 1014.1 hPa 0.5 m/s 0.4 mm
08:00 21.0° 1014.2 hPa 0.2 m/s 0.6 mm
14:00 27.7° 1012.8 hPa 0.4 m/s 0.9 mm
20:00 23.5° 1012.6 hPa 0.3 m/s 2.2 mm
 05:06     21:04    Daglengte: 15:58 Maandag 01 Jul
02:00 17.6° 1014.0 hPa 1.3 m/s 1.5 mm
08:00 20.2° 1014.1 hPa 1.2 m/s 1.2 mm
14:00 26.7° 1012.7 hPa 1.3 m/s 1.4 mm
20:00 22.1° 1012.7 hPa 1.0 m/s 1.6 mm
 05:07     21:03    Daglengte: 15:56 Dinsdag 02 Jul
02:00 15.8° 1014.2 hPa 1.4 m/s 1.6 mm
08:00 18.8° 1014.6 hPa 1.6 m/s 1.8 mm
14:00 25.6° 1013.4 hPa 1.6 m/s 0.9 mm
20:00 21.6° 1013.4 hPa 0.9 m/s 1.6 mm
 05:07     21:03    Daglengte: 15:56 Woensdag 03 Jul
02:00 14.9° 1015.0 hPa 1.4 m/s 0.7 mm
08:00 17.6° 1015.6 hPa 1.4 m/s 0.8 mm
14:00 23.1° 1015.1 hPa 1.5 m/s 2.3 mm
20:00 20.0° 1015.2 hPa 1.0 m/s 2.2 mm
 05:08     21:03    Daglengte: 15:55 Donderdag 04 Jul
02:00 13.5° 1016.6 hPa 0.9 m/s 2.2 mm
08:00 17.4° 1016.9 hPa 1.0 m/s 2.4 mm
FMI Hirlam - 7.5 km EWN WRFDA - 12 km DWD ICON - 7 km GFS - 25 km Basiskaart






























































Updatetijd (Europe/Amsterdam) Resolutie Lengte Stap
FMI Hirlam 07:00, 13:00, 19:00, 01:00 7.5 km 49h 1h
EWN WRFDA 10:15, 16:15, 22:15, 04:15 12 km 73h 1h
DWD ICON 11:45, 17:45, 23:45, 05:45 7 km 75h 1h
GFS 08:45, 14:45, 20:45, 02:45 25 km 237h 3h
30+ mm
25-30 mm
20-25 mm
15-20 mm
10-15 mm
6-10 mm
4-6 mm
2-4 mm
1-2 mm
0.5-1 mm
0.2-0.5 mm
0.1-0.2 mm
30+ mm
25-30 mm
20-25 mm
15-20 mm
10-15 mm
6-10 mm
4-6 mm
2-4 mm
1-2 mm
0.5-1 mm
0.2-0.5 mm
0.1-0.2 mm
Sneeuwval
Natte sneeuw
Hagel
Vorst
30+ mm
25-30 mm
20-25 mm
15-20 mm
10-15 mm
6-10 mm
4-6 mm
2-4 mm
1-2 mm
0.5-1 mm
0.2-0.5 mm
0.1-0.2 mm
Sneeuwval
Natte sneeuw
Hagel
Vorst
Onweer
50 mm
40 mm
30 mm
26 mm
22 mm
18 mm
14 mm
10 mm
9 mm
8 mm
7 mm
6 mm
5 mm
4.5 mm
4 mm
3.5 mm
3 mm
2.5 mm
2 mm
1.5 mm
1 mm
0.8 mm
0.6 mm
0.4 mm
0.2 mm
0.05 mm
35°
30°
25°
20°
15°
10°
-5°
-10°
-15°
-20°
-25°
-30°
-35°
33> m/s
29 m/s
25 m/s
21 m/s
17 m/s
14 m/s
11 m/s
8 m/s
5 m/s
3 m/s
0 m/s
2600 J/kg
2400 J/kg
2200 J/kg
2000 J/kg
1800 J/kg
1600 J/kg
1400 J/kg
1200 J/kg
1000 J/kg
800 J/kg
600 J/kg
400 J/kg
200 J/kg
70 dBZ
65 dBZ
60 dBZ
55 dBZ
50 dBZ
45 dBZ
40 dBZ
35 dBZ
30 dBZ
25 dBZ
20 dBZ
15 dBZ
10 dBZ
5 dBZ
-1 K
-2 K
-3 K
-4 K
-5 K
-6 K
-7 K
-8 K
-9 K
950 m²/s²
900 m²/s²
850 m²/s²
800 m²/s²
750 m²/s²
700 m²/s²
650 m²/s²
600 m²/s²
550 m²/s²
500 m²/s²
450 m²/s²
400 m²/s²
350 m²/s²
300 m²/s²
250 m²/s²
200 m²/s²
150 m²/s²
100 m²/s²
46 m/s
44 m/s
42 m/s
40 m/s
38 m/s
36 m/s
34 m/s
32 m/s
30 m/s
28 m/s
26 m/s
24 m/s
22 m/s
20 m/s
16 m/s
12 m/s
8 m/s
4 m/s
30 m/s
28 m/s
26 m/s
24 m/s
22 m/s
20 m/s
18 m/s
16 m/s
14 m/s
12 m/s
10 m/s
8 m/s
6 m/s
4 m/s
2 m/s
3.0
2.8
2.6
2.4
2.2
2.0
1.8
1.6
1.4
1.2
1.0
0.8
0.6
0.4
0.2
15
14
13
12
11
10
9
8
7
6
5
4
3
2
1
90%
80%
70%
60%
50%
40%
30%
20%
10%
42
40
38
36
34
32
30
28
26
24
22
20
18
16
14
12
90+ cm
80-90 cm
70-80 cm
60-70 cm
50-60 cm
40-50 cm
30-40 cm
20-30 cm
10-20 cm
1-10 cm
Sneeuwval
Natte sneeuw
Regen
>120 mm
115 mm
110 mm
105 mm
100 mm
95 mm
90 mm
85 mm
80 mm
75 mm
70 mm
65 mm
60 mm
55 mm
50 mm
45 mm
45 mm
40 mm
35 mm
30 mm
25 mm
20 mm
15 mm
10 mm
5 mm
0.1 mm
960 hPa